�������l�o���
Date,Time,MP-1(��Sv/h),MP-2(��Sv/h),MP-3(��Sv/h),MP-4(��Sv/h),MP-5(��Sv/h),MP-6(��Sv/h),MP-7(��Sv/h),MP-8(��Sv/h),����,����(m/s),���J
2018/10/05,00:00,0.785,1.192,0.830,1.483,1.057,0.462,0.807,0.764,�k�k��,0.9,��
2018/10/05,00:10,0.784,1.192,0.830,1.483,1.056,0.461,0.806,0.765,-,CALM,��
2018/10/05,00:20,0.785,1.191,0.830,1.484,1.054,0.460,0.807,0.764,��,1.2,��
2018/10/05,00:30,0.785,1.196,0.829,1.486,1.052,0.462,0.806,0.763,��,1.2,��
2018/10/05,00:40,0.785,1.193,0.831,1.484,1.054,0.461,0.806,0.763,��,3.2,��
2018/10/05,00:50,0.787,1.192,0.830,1.481,1.054,0.461,0.806,0.765,��,1.7,��
2018/10/05,01:00,0.784,1.193,0.830,1.483,1.054,0.462,0.807,0.763,��,2.3,��
2018/10/05,01:10,0.787,1.191,0.830,1.484,1.053,0.463,0.807,0.764,���쓌,4.5,��
2018/10/05,01:20,0.784,1.193,0.831,1.482,1.056,0.462,0.805,0.763,���쓌,3.3,��
2018/10/05,01:30,0.787,1.193,0.831,1.486,1.054,0.459,0.806,0.763,���쓌,2.0,��
2018/10/05,01:40,0.787,1.193,0.831,1.483,1.055,0.462,0.805,0.763,���쓌,1.7,��
2018/10/05,01:50,0.785,1.190,0.830,1.484,1.054,0.462,0.806,0.763,���쓌,2.9,��
2018/10/05,02:00,0.786,1.193,0.830,1.484,1.056,0.462,0.806,0.763,���쓌,4.0,��
2018/10/05,02:10,0.788,1.191,0.830,1.484,1.054,0.463,0.805,0.764,��,3.9,��
2018/10/05,02:20,0.786,1.192,0.830,1.483,1.054,0.462,0.804,0.765,���쓌,4.5,��
2018/10/05,02:30,0.786,1.191,0.832,1.483,1.054,0.461,0.805,0.764,���쓌,4.7,��
2018/10/05,02:40,0.785,1.190,0.829,1.481,1.053,0.462,0.806,0.763,���쓌,4.1,��
2018/10/05,02:50,0.785,1.194,0.829,1.481,1.054,0.462,0.805,0.764,���쓌,3.8,��
2018/10/05,03:00,0.785,1.193,0.828,1.483,1.057,0.463,0.805,0.765,���쓌,2.9,��
2018/10/05,03:10,0.784,1.193,0.831,1.481,1.054,0.461,0.804,0.764,���쓌,3.4,��
2018/10/05,03:20,0.784,1.193,0.832,1.482,1.055,0.461,0.805,0.765,�쓌,3.8,��
2018/10/05,03:30,0.784,1.193,0.830,1.481,1.056,0.461,0.804,0.763,���쓌,3.6,��
2018/10/05,03:40,0.787,1.193,0.831,1.482,1.055,0.460,0.806,0.764,���쓌,4.4,��
2018/10/05,03:50,0.785,1.190,0.831,1.484,1.054,0.461,0.804,0.763,���쓌,3.2,��
2018/10/05,04:00,0.784,1.191,0.829,1.482,1.054,0.460,0.805,0.763,���쓌,3.5,��
2018/10/05,04:10,0.787,1.191,0.829,1.482,1.056,0.462,0.806,0.764,���쓌,3.2,��
2018/10/05,04:20,0.785,1.192,0.830,1.480,1.056,0.461,0.805,0.764,���쓌,3.9,��
2018/10/05,04:30,0.784,1.190,0.829,1.483,1.056,0.462,0.805,0.763,���쓌,3.3,��
2018/10/05,04:40,0.784,1.191,0.830,1.483,1.054,0.461,0.804,0.764,�쓌,3.4,��
2018/10/05,04:50,0.783,1.192,0.829,1.484,1.055,0.461,0.804,0.764,���쓌,1.5,��
2018/10/05,05:00,0.787,1.194,0.829,1.482,1.054,0.461,0.805,0.765,�쓌,1.4,��
2018/10/05,05:10,0.784,1.191,0.828,1.481,1.056,0.461,0.804,0.765,�쓌,1.7,��
2018/10/05,05:20,0.784,1.191,0.828,1.482,1.057,0.462,0.807,0.764,�쓌,2.2,��
2018/10/05,05:30,0.783,1.190,0.830,1.482,1.056,0.461,0.808,0.765,��,1.7,��
2018/10/05,05:40,0.784,1.194,0.828,1.483,1.055,0.460,0.807,0.763,��쓌,2.6,��
2018/10/05,05:50,0.783,1.191,0.829,1.481,1.054,0.461,0.804,0.763,��쓌,2.6,��
2018/10/05,06:00,0.787,1.192,0.830,1.482,1.056,0.462,0.805,0.764,��쓌,2.0,��
2018/10/05,06:10,0.786,1.192,0.828,1.481,1.055,0.461,0.807,0.764,��쓌,2.0,��
2018/10/05,06:20,0.785,1.190,0.829,1.484,1.054,0.461,0.806,0.765,��쓌,2.2,��
2018/10/05,06:30,0.786,1.190,0.830,1.483,1.054,0.460,0.806,0.765,��쓌,2.0,��
2018/10/05,06:40,0.785,1.190,0.829,1.481,1.056,0.461,0.806,0.764,��,2.0,��
2018/10/05,06:50,0.788,1.192,0.831,1.483,1.054,0.461,0.807,0.765,��,2.3,��
2018/10/05,07:00,0.787,1.192,0.830,1.482,1.057,0.462,0.807,0.764,��,1.7,��
2018/10/05,07:10,0.788,1.192,0.829,1.481,1.057,0.460,0.809,0.765,��,1.5,��
2018/10/05,07:20,0.785,1.191,0.829,1.483,1.055,0.461,0.806,0.765,��쓌,1.7,��
2018/10/05,07:30,0.785,1.191,0.830,1.482,1.056,0.461,0.807,0.765,��쓌,1.7,��
2018/10/05,07:40,0.787,1.186,0.830,1.482,1.057,0.460,0.806,0.764,��쓌,1.7,��
2018/10/05,07:50,0.786,1.190,0.828,1.484,1.056,0.460,0.806,0.763,���쓌,3.0,��
2018/10/05,08:00,0.786,1.189,0.830,1.484,1.056,0.460,0.805,0.764,���쓌,3.9,��
2018/10/05,08:10,0.786,1.187,0.831,1.483,1.055,0.461,0.805,0.763,�쓌,3.5,��
2018/10/05,08:20,0.788,1.186,0.831,1.484,1.054,0.458,0.806,0.761,�쓌,3.8,��
2018/10/05,08:30,0.785,1.186,0.829,1.480,1.055,0.457,0.805,0.763,�쓌,4.0,��
2018/10/05,08:40,0.786,1.186,0.827,1.478,1.055,0.458,0.805,0.763,��쓌,3.9,��
2018/10/05,08:50,0.784,1.186,0.830,1.480,1.052,0.459,0.806,0.762,��쓌,3.9,��
2018/10/05,09:00,0.784,1.184,0.830,1.481,1.054,0.460,0.807,0.762,��쓌,3.6,��
2018/10/05,09:10,0.784,1.185,0.828,1.481,1.053,0.460,0.806,0.762,��쓌,4.1,��
2018/10/05,09:20,0.786,1.186,0.825,1.481,1.055,0.460,0.806,0.762,��쓌,3.9,��
2018/10/05,09:30,0.783,1.183,0.829,1.482,1.053,0.459,0.805,0.764,��쓌,4.1,��
2018/10/05,09:40,0.786,1.186,0.829,1.480,1.053,0.459,0.805,0.760,��쓌,3.8,��
2018/10/05,09:50,0.784,1.184,0.824,1.480,1.056,0.458,0.806,0.760,��쓌,4.8,��
2018/10/05,10:00,0.785,1.186,0.831,1.482,1.054,0.460,0.808,0.762,��쓌,5.3,��
2018/10/05,10:10,0.785,1.187,0.828,1.483,1.055,0.460,0.806,0.761,��쓌,4.2,��
2018/10/05,10:20,0.786,1.188,0.829,1.483,1.058,0.461,0.806,0.763,��쓌,5.3,��
2018/10/05,10:30,0.787,1.189,0.829,1.483,1.057,0.459,0.809,0.763,��쓌,4.9,��
2018/10/05,10:40,0.786,1.190,0.829,1.485,1.056,0.462,0.808,0.761,�쓌,5.2,��
2018/10/05,10:50,0.788,1.190,0.830,1.481,1.055,0.461,0.808,0.764,��쓌,4.8,��
2018/10/05,11:00,0.788,1.188,0.830,1.484,1.059,0.461,0.809,0.762,��쓌,4.5,��
2018/10/05,11:10,0.787,1.193,0.831,1.483,1.059,0.460,0.808,0.762,��쓌,4.5,��
2018/10/05,11:20,0.787,1.192,0.829,1.482,1.057,0.462,0.808,0.763,��쓌,4.8,��
2018/10/05,11:30,0.788,1.193,0.830,1.484,1.057,0.461,0.807,0.762,��쓌,5.0,��
2018/10/05,11:40,0.786,1.193,0.833,1.486,1.060,0.460,0.808,0.764,�쓌,5.3,��
2018/10/05,11:50,0.790,1.194,0.832,1.483,1.060,0.464,0.808,0.762,�쓌,4.5,��
2018/10/05,12:00,0.790,1.190,0.833,1.486,1.059,0.462,0.806,0.763,��쓌,4.3,��
2018/10/05,12:10,0.787,1.193,0.831,1.484,1.061,0.463,0.807,0.763,��쓌,5.1,��
2018/10/05,12:20,0.788,1.196,0.832,1.484,1.060,0.461,0.809,0.763,��쓌,4.4,��
2018/10/05,12:30,0.789,1.196,0.831,1.485,1.059,0.463,0.808,0.762,��쓌,3.9,��
2018/10/05,12:40,0.787,1.195,0.831,1.484,1.060,0.461,0.809,0.763,�쓌,5.1,��
2018/10/05,12:50,0.787,1.192,0.833,1.485,1.060,0.462,0.807,0.764,��쓌,5.9,��
2018/10/05,13:00,0.789,1.190,0.834,1.485,1.059,0.464,0.809,0.762,��쓌,5.5,��
2018/10/05,13:10,0.789,1.194,0.831,1.484,1.057,0.463,0.809,0.765,��쓌,6.4,��
2018/10/05,13:20,0.789,1.191,0.832,1.485,1.060,0.462,0.808,0.763,��쓌,6.1,��
2018/10/05,13:30,0.788,1.192,0.831,1.485,1.060,0.463,0.808,0.762,��쓌,6.1,��
2018/10/05,13:40,0.790,1.197,0.834,1.485,1.060,0.463,0.809,0.762,��쓌,5.7,��
2018/10/05,13:50,0.789,1.193,0.833,1.484,1.062,0.464,0.809,0.763,��쓌,5.7,��
2018/10/05,14:00,0.789,1.194,0.833,1.483,1.060,0.463,0.807,0.764,��쓌,6.0,��
2018/10/05,14:10,0.789,1.191,0.834,1.485,1.061,0.463,0.809,0.762,��쓌,5.9,��
2018/10/05,14:20,0.791,1.192,0.833,1.485,1.061,0.463,0.806,0.764,��쓌,5.5,��
2018/10/05,14:30,0.790,1.195,0.835,1.487,1.061,0.464,0.806,0.763,��쓌,5.1,��
2018/10/05,14:40,0.790,1.193,0.834,1.485,1.060,0.464,0.807,0.764,��쓌,5.0,��
2018/10/05,14:50,0.789,1.197,0.831,1.487,1.061,0.463,0.808,0.763,��쓌,5.2,��
2018/10/05,15:00,0.790,1.195,0.831,1.483,1.063,0.464,0.807,0.762,��쓌,5.4,��
2018/10/05,15:10,0.789,1.194,0.831,1.488,1.060,0.463,0.808,0.763,��쓌,4.9,��
2018/10/05,15:20,0.789,1.192,0.834,1.487,1.061,0.464,0.808,0.761,��쓌,4.1,��
2018/10/05,15:30,0.788,1.196,0.832,1.488,1.059,0.464,0.809,0.763,��쓌,4.5,��
2018/10/05,15:40,0.788,1.195,0.829,1.486,1.058,0.464,0.808,0.762,��,3.8,��
2018/10/05,15:50,0.789,1.196,0.830,1.487,1.062,0.464,0.810,0.762,��쓌,3.9,��
2018/10/05,16:00,0.788,1.199,0.833,1.484,1.061,0.463,0.806,0.763,��쓌,3.1,��
2018/10/05,16:10,0.788,1.198,0.832,1.485,1.061,0.464,0.809,0.763,��쓌,3.3,��
2018/10/05,16:20,0.789,1.200,0.832,1.487,1.060,0.463,0.807,0.764,��쓌,3.5,��
2018/10/05,16:30,0.790,1.200,0.833,1.488,1.060,0.465,0.807,0.765,��쓌,3.2,��
2018/10/05,16:40,0.788,1.198,0.833,1.488,1.061,0.464,0.809,0.764,��쓌,2.8,��
2018/10/05,16:50,0.790,1.200,0.834,1.488,1.059,0.463,0.806,0.764,��쓌,2.9,��
2018/10/05,17:00,0.791,1.199,0.835,1.484,1.059,0.465,0.808,0.763,��쓌,3.5,��
2018/10/05,17:10,0.791,1.201,0.836,1.486,1.062,0.466,0.806,0.762,��쓌,3.0,��
2018/10/05,17:20,0.791,1.202,0.838,1.488,1.060,0.466,0.808,0.766,��쓌,2.6,��
2018/10/05,17:30,0.790,1.200,0.837,1.486,1.059,0.465,0.808,0.766,��쓌,2.3,��
2018/10/05,17:40,0.791,1.202,0.836,1.488,1.062,0.465,0.808,0.766,��,3.0,��
2018/10/05,17:50,0.791,1.203,0.838,1.487,1.063,0.465,0.809,0.766,��,4.3,��
2018/10/05,18:00,0.790,1.205,0.835,1.487,1.064,0.467,0.809,0.765,��쓌,4.6,��
2018/10/05,18:10,0.792,1.205,0.836,1.488,1.063,0.466,0.809,0.767,��,4.5,��
2018/10/05,18:20,0.792,1.203,0.838,1.489,1.063,0.467,0.809,0.766,��,3.1,��
2018/10/05,18:30,0.792,1.202,0.837,1.488,1.064,0.465,0.809,0.766,��쓌,2.0,��
2018/10/05,18:40,0.791,1.202,0.836,1.486,1.062,0.465,0.809,0.766,��,3.1,��
2018/10/05,18:50,0.794,1.204,0.838,1.488,1.065,0.467,0.808,0.765,��,3.0,��
2018/10/05,19:00,0.792,1.202,0.837,1.488,1.065,0.466,0.809,0.765,��,2.6,��
2018/10/05,19:10,0.791,1.203,0.835,1.487,1.063,0.465,0.807,0.767,��,3.1,��
2018/10/05,19:20,0.791,1.203,0.838,1.488,1.063,0.466,0.808,0.767,��,2.9,��
2018/10/05,19:30,0.792,1.204,0.835,1.488,1.062,0.466,0.809,0.766,��,3.1,��
2018/10/05,19:40,0.793,1.203,0.836,1.487,1.064,0.464,0.810,0.766,��,2.5,��
2018/10/05,19:50,0.793,1.203,0.837,1.486,1.063,0.465,0.810,0.766,��,3.0,��
2018/10/05,20:00,0.791,1.201,0.838,1.491,1.060,0.465,0.808,0.766,��쐼,3.3,��
2018/10/05,20:10,0.793,1.201,0.835,1.488,1.064,0.465,0.807,0.766,��,3.8,��
2018/10/05,20:20,0.793,1.201,0.836,1.490,1.063,0.465,0.809,0.764,��쐼,3.4,��
2018/10/05,20:30,0.792,1.203,0.837,1.488,1.060,0.466,0.809,0.764,��,3.9,��
2018/10/05,20:40,0.791,1.203,0.837,1.488,1.063,0.464,0.810,0.765,��,3.6,��
2018/10/05,20:50,0.793,1.201,0.838,1.489,1.062,0.463,0.808,0.765,��,3.9,��
2018/10/05,21:00,0.793,1.201,0.836,1.489,1.063,0.465,0.809,0.765,��,3.0,��
2018/10/05,21:10,0.791,1.201,0.837,1.487,1.062,0.465,0.808,0.767,��,0.9,��
2018/10/05,21:20,0.791,1.200,0.837,1.488,1.065,0.464,0.808,0.767,��,1.7,��
2018/10/05,21:30,0.791,1.201,0.838,1.489,1.064,0.465,0.809,0.765,��,2.0,��
2018/10/05,21:40,0.791,1.204,0.836,1.490,1.062,0.464,0.809,0.767,��,3.1,��
2018/10/05,21:50,0.794,1.203,0.839,1.488,1.066,0.465,0.809,0.765,��쓌,2.0,��
2018/10/05,22:00,0.792,1.203,0.838,1.489,1.064,0.465,0.810,0.766,��,2.3,��
2018/10/05,22:10,0.790,1.199,0.837,1.487,1.064,0.466,0.809,0.765,��쓌,2.6,��
2018/10/05,22:20,0.791,1.201,0.837,1.490,1.063,0.465,0.811,0.765,��,3.1,��
2018/10/05,22:30,0.793,1.202,0.837,1.489,1.063,0.464,0.809,0.766,��,3.1,�L
2018/10/05,22:40,0.791,1.201,0.838,1.490,1.062,0.464,0.810,0.766,��,3.0,��
2018/10/05,22:50,0.792,1.200,0.837,1.490,1.064,0.464,0.810,0.765,��쓌,3.3,�L
2018/10/05,23:00,0.793,1.200,0.836,1.487,1.064,0.464,0.810,0.767,��,2.6,�L
2018/10/05,23:10,0.793,1.202,0.835,1.489,1.064,0.465,0.807,0.767,��쓌,3.3,�L
2018/10/05,23:20,0.791,1.200,0.839,1.487,1.062,0.466,0.809,0.766,��쓌,3.1,�L
2018/10/05,23:30,0.792,1.201,0.835,1.491,1.063,0.465,0.809,0.765,��,2.2,�L
2018/10/05,23:40,0.792,1.202,0.836,1.488,1.063,0.466,0.808,0.766,��,2.3,�L
2018/10/05,23:50,0.791,1.202,0.837,1.489,1.061,0.464,0.810,0.765,��쐼,2.0,�L
